Location: Home
(42.5358°N, 72.7383°W)
Time: 15:35:44
(UTC-05:00)

Vanguard 3 - Pass Details

Date: 07 December 2021
Orbit: 508 x 3260 km, 33.3° (Epoch: 20 January)

Event Time Altitude Azimuth Distance (km) Brightness Sun altitude
Rises 06:12:55 0° 270° (W) 7,214 - -9.8°
Exits shadow 06:15:15 - 269° (W) 6,741 11.2 -9.4°
Reaches altitude 10° 06:17:56 10° 267° (W) 6,194 11.1 -9.0°
Maximum altitude 06:36:32 56° 197° (SSW) 3,092 10.1 -5.8°
Drops below altitude 10° 06:49:12 10° 124° (SE) 4,372 12.8 -3.7°
Sets 06:52:06 0° 120° (ESE) 5,053 14.7 -3.3°
